Year,Month,Day,Hour,Minute,Value (Times are PST for temperature in C)
2006,04,23,00,00,5.50
2006,04,23,00,01,5.40
2006,04,23,00,02,5.40
2006,04,23,00,03,5.30
2006,04,23,00,04,5.30
2006,04,23,00,05,5.30
2006,04,23,00,06,5.30
2006,04,23,00,07,5.30
2006,04,23,00,08,5.30
2006,04,23,00,09,5.30
2006,04,23,00,10,5.20
2006,04,23,00,11,5.20
2006,04,23,00,12,5.20
2006,04,23,00,13,5.20
2006,04,23,00,14,5.10
2006,04,23,00,15,5.10
2006,04,23,00,16,5.10
2006,04,23,00,17,5.10
2006,04,23,00,18,5.10
2006,04,23,00,19,5.10
2006,04,23,00,20,5.10
2006,04,23,00,21,5.00
2006,04,23,00,22,4.90
2006,04,23,00,23,4.90
2006,04,23,00,24,4.90
2006,04,23,00,25,4.90
2006,04,23,00,26,4.90
2006,04,23,00,27,4.90
2006,04,23,00,28,4.90
2006,04,23,00,29,4.90
2006,04,23,00,30,4.90
2006,04,23,00,31,4.90
2006,04,23,00,32,4.90
2006,04,23,00,33,4.80
2006,04,23,00,34,4.80
2006,04,23,00,35,4.80
2006,04,23,00,36,4.80
2006,04,23,00,37,4.70
2006,04,23,00,38,4.70
2006,04,23,00,39,4.70
2006,04,23,00,40,4.70
2006,04,23,00,41,4.70
2006,04,23,00,42,4.60
2006,04,23,00,43,4.60
2006,04,23,00,44,4.60
2006,04,23,00,45,4.60
2006,04,23,00,46,4.60
2006,04,23,00,47,4.60
2006,04,23,00,48,4.60
2006,04,23,00,49,4.60
2006,04,23,00,50,4.60
2006,04,23,00,51,4.50
2006,04,23,00,52,4.50
2006,04,23,00,53,4.50
2006,04,23,00,54,4.50
2006,04,23,00,55,4.50
2006,04,23,00,56,4.50
2006,04,23,00,57,4.50
2006,04,23,00,58,4.50
2006,04,23,00,59,4.50
2006,04,23,01,00,4.50
2006,04,23,01,01,4.50
2006,04,23,01,02,4.50
2006,04,23,01,03,4.50
2006,04,23,01,04,4.40
2006,04,23,01,05,4.40
2006,04,23,01,06,4.40
2006,04,23,01,07,4.30
2006,04,23,01,08,4.30
2006,04,23,01,09,4.30
2006,04,23,01,10,4.20
2006,04,23,01,11,4.20
2006,04,23,01,12,4.20
2006,04,23,01,13,4.20
2006,04,23,01,14,4.20
2006,04,23,01,15,4.20
2006,04,23,01,16,4.10
2006,04,23,01,17,4.10
2006,04,23,01,18,4.10
2006,04,23,01,19,4.00
2006,04,23,01,20,4.00
2006,04,23,01,21,4.00
2006,04,23,01,22,4.00
2006,04,23,01,23,3.90
2006,04,23,01,24,3.90
2006,04,23,01,25,3.90
2006,04,23,01,26,3.80
2006,04,23,01,27,3.80
2006,04,23,01,28,3.80
2006,04,23,01,29,3.80
2006,04,23,01,30,3.80
2006,04,23,01,31,3.80
2006,04,23,01,32,3.80
2006,04,23,01,33,3.70
2006,04,23,01,34,3.70
2006,04,23,01,35,3.80
2006,04,23,01,36,3.80
2006,04,23,01,37,3.80
2006,04,23,01,38,3.80
2006,04,23,01,39,3.80
2006,04,23,01,40,3.80
2006,04,23,01,41,3.80
2006,04,23,01,42,3.80
2006,04,23,01,43,3.80
2006,04,23,01,44,3.80
2006,04,23,01,45,3.80
2006,04,23,01,46,3.80
2006,04,23,01,47,3.70
2006,04,23,01,48,3.70
2006,04,23,01,49,3.70
2006,04,23,01,50,3.70
2006,04,23,01,51,3.70
2006,04,23,01,52,3.70
2006,04,23,01,53,3.60
2006,04,23,01,54,3.60
2006,04,23,01,55,3.60
2006,04,23,01,56,3.60
2006,04,23,01,57,3.60
2006,04,23,01,58,3.70
2006,04,23,01,59,3.60
2006,04,23,02,00,3.60
2006,04,23,02,01,3.60
2006,04,23,02,02,3.60
2006,04,23,02,03,3.60
2006,04,23,02,04,3.60
2006,04,23,02,05,3.60
2006,04,23,02,06,3.60
2006,04,23,02,07,3.50
2006,04,23,02,08,3.50
2006,04,23,02,09,3.50
2006,04,23,02,10,3.50
2006,04,23,02,11,3.50
2006,04,23,02,12,3.50
2006,04,23,02,13,3.50
2006,04,23,02,14,3.50
2006,04,23,02,15,3.50
2006,04,23,02,16,3.40
2006,04,23,02,17,3.40
2006,04,23,02,18,3.40
2006,04,23,02,19,3.40
2006,04,23,02,20,3.40
2006,04,23,02,21,3.40
2006,04,23,02,22,3.40
2006,04,23,02,23,3.40
2006,04,23,02,24,3.40
2006,04,23,02,25,3.40
2006,04,23,02,26,3.40
2006,04,23,02,27,3.30
2006,04,23,02,28,3.30
2006,04,23,02,29,3.30
2006,04,23,02,30,3.30
2006,04,23,02,31,3.30
2006,04,23,02,32,3.30
2006,04,23,02,33,3.30
2006,04,23,02,34,3.30
2006,04,23,02,35,3.30
2006,04,23,02,36,3.30
2006,04,23,02,37,3.30
2006,04,23,02,38,3.30
2006,04,23,02,39,3.20
2006,04,23,02,40,3.20
2006,04,23,02,41,3.20
2006,04,23,02,42,3.20
2006,04,23,02,43,3.20
2006,04,23,02,44,3.10
2006,04,23,02,45,3.10
2006,04,23,02,46,3.10
2006,04,23,02,47,3.10
2006,04,23,02,48,3.10
2006,04,23,02,49,3.10
2006,04,23,02,50,3.10
2006,04,23,02,51,3.10
2006,04,23,02,52,2.90
2006,04,23,02,53,2.90
2006,04,23,02,54,2.90
2006,04,23,02,55,2.90
2006,04,23,02,56,2.90
2006,04,23,02,57,2.90
2006,04,23,02,58,2.90
2006,04,23,02,59,2.90
2006,04,23,03,00,2.90
2006,04,23,03,01,2.90
2006,04,23,03,02,2.90
2006,04,23,03,03,2.90
2006,04,23,03,04,2.90
2006,04,23,03,05,2.90
2006,04,23,03,06,3.10
2006,04,23,03,07,3.00
2006,04,23,03,08,2.90
2006,04,23,03,09,2.90
2006,04,23,03,10,2.90
2006,04,23,03,11,2.90
2006,04,23,03,12,2.90
2006,04,23,03,13,2.90
2006,04,23,03,14,3.00
2006,04,23,03,15,3.10
2006,04,23,03,16,3.10
2006,04,23,03,17,3.10
2006,04,23,03,18,3.10
2006,04,23,03,19,3.10
2006,04,23,03,20,3.10
2006,04,23,03,21,3.10
2006,04,23,03,22,3.10
2006,04,23,03,23,3.10
2006,04,23,03,24,3.10
2006,04,23,03,25,3.10
2006,04,23,03,26,3.10
2006,04,23,03,27,3.10
2006,04,23,03,28,3.10
2006,04,23,03,29,3.10
2006,04,23,03,30,3.10
2006,04,23,03,31,3.10
2006,04,23,03,32,3.10
2006,04,23,03,33,3.10
2006,04,23,03,34,3.10
2006,04,23,03,35,3.10
2006,04,23,03,36,3.10
2006,04,23,03,37,3.10
2006,04,23,03,38,3.10
2006,04,23,03,39,3.20
2006,04,23,03,40,3.30
2006,04,23,03,41,3.30
2006,04,23,03,42,3.30
2006,04,23,03,43,3.30
2006,04,23,03,44,3.30
2006,04,23,03,45,3.30
2006,04,23,03,46,3.30
2006,04,23,03,47,3.20
2006,04,23,03,48,3.20
2006,04,23,03,49,3.20
2006,04,23,03,50,3.20
2006,04,23,03,51,3.20
2006,04,23,03,52,3.20
2006,04,23,03,53,3.10
2006,04,23,03,54,3.10
2006,04,23,03,55,3.10
2006,04,23,03,56,3.10
2006,04,23,03,57,3.10
2006,04,23,03,58,3.10
2006,04,23,03,59,3.10
2006,04,23,04,00,3.10
2006,04,23,04,01,3.10
2006,04,23,04,02,3.10
2006,04,23,04,03,3.10
2006,04,23,04,04,3.10
2006,04,23,04,05,3.10
2006,04,23,04,06,3.10
2006,04,23,04,07,3.10
2006,04,23,04,08,3.10
2006,04,23,04,09,3.20
2006,04,23,04,10,3.20
2006,04,23,04,11,3.20
2006,04,23,04,12,3.20
2006,04,23,04,13,3.20
2006,04,23,04,14,3.10
2006,04,23,04,15,3.10
2006,04,23,04,16,3.20
2006,04,23,04,17,3.20
2006,04,23,04,18,3.20
2006,04,23,04,19,3.20
2006,04,23,04,20,3.20
2006,04,23,04,21,3.20
2006,04,23,04,22,3.20
2006,04,23,04,23,3.30
2006,04,23,04,24,3.30
2006,04,23,04,25,3.30
2006,04,23,04,26,3.30
2006,04,23,04,27,3.40
2006,04,23,04,28,3.40
2006,04,23,04,29,3.50
2006,04,23,04,30,3.60
2006,04,23,04,31,3.60
2006,04,23,04,32,3.70
2006,04,23,04,33,3.70
2006,04,23,04,34,3.80
2006,04,23,04,35,3.80
2006,04,23,04,36,4.00
2006,04,23,04,37,4.00
2006,04,23,04,38,4.20
2006,04,23,04,39,4.50
2006,04,23,04,40,4.60
2006,04,23,04,41,4.80
2006,04,23,04,42,5.20
2006,04,23,04,43,5.50
2006,04,23,04,44,5.70
2006,04,23,04,45,5.80
2006,04,23,04,46,6.00
2006,04,23,04,47,6.20
2006,04,23,04,48,6.40
2006,04,23,04,49,6.50
2006,04,23,04,50,6.70
2006,04,23,04,51,6.80
2006,04,23,04,52,6.80
2006,04,23,04,53,6.80
2006,04,23,04,54,6.90
2006,04,23,04,55,7.00
2006,04,23,04,56,7.10
2006,04,23,04,57,7.20
2006,04,23,04,58,7.30
2006,04,23,04,59,7.30
2006,04,23,05,00,7.30
2006,04,23,05,01,7.30
2006,04,23,05,02,7.30
2006,04,23,05,03,7.30
2006,04,23,05,04,7.30
2006,04,23,05,05,7.30
2006,04,23,05,06,7.20
2006,04,23,05,07,7.20
2006,04,23,05,08,7.20
2006,04,23,05,09,7.20
2006,04,23,05,10,7.20
2006,04,23,05,11,7.10
2006,04,23,05,12,7.00
2006,04,23,05,13,7.00
2006,04,23,05,14,6.90
2006,04,23,05,15,6.90
2006,04,23,05,16,6.80
2006,04,23,05,17,6.80
2006,04,23,05,18,6.80
2006,04,23,05,19,6.80
2006,04,23,05,20,6.80
2006,04,23,05,21,6.80
2006,04,23,05,22,6.80
2006,04,23,05,23,6.80
2006,04,23,05,24,6.80
2006,04,23,05,25,6.80
2006,04,23,05,26,6.80
2006,04,23,05,27,6.80
2006,04,23,05,28,6.80
2006,04,23,05,29,6.80
2006,04,23,05,30,6.80
2006,04,23,05,31,6.80
2006,04,23,05,32,6.80
2006,04,23,05,33,6.80
2006,04,23,05,34,6.80
2006,04,23,05,35,6.80
2006,04,23,05,36,6.80
2006,04,23,05,37,6.80
2006,04,23,05,38,6.80
2006,04,23,05,39,6.90
2006,04,23,05,40,6.90
2006,04,23,05,41,7.00
2006,04,23,05,42,7.10
2006,04,23,05,43,7.10
2006,04,23,05,44,7.20
2006,04,23,05,45,7.20
2006,04,23,05,46,7.20
2006,04,23,05,47,7.20
2006,04,23,05,48,7.30
2006,04,23,05,49,7.30
2006,04,23,05,50,7.40
2006,04,23,05,51,7.50
2006,04,23,05,52,7.50
2006,04,23,05,53,7.50
2006,04,23,05,54,7.60
2006,04,23,05,55,7.60
2006,04,23,05,56,7.60
2006,04,23,05,57,7.60
2006,04,23,05,58,7.60
2006,04,23,05,59,7.70
2006,04,23,06,00,7.70
2006,04,23,06,01,7.70
2006,04,23,06,02,7.70
2006,04,23,06,03,7.70
2006,04,23,06,04,7.70
2006,04,23,06,05,7.80
2006,04,23,06,06,7.80
2006,04,23,06,07,7.80
2006,04,23,06,08,7.80
2006,04,23,06,09,7.80
2006,04,23,06,10,7.80
2006,04,23,06,11,7.80
2006,04,23,06,12,7.80
2006,04,23,06,13,7.80
2006,04,23,06,14,7.80
2006,04,23,06,15,7.80
2006,04,23,06,16,7.80
2006,04,23,06,17,7.80
2006,04,23,06,18,7.90
2006,04,23,06,19,7.90
2006,04,23,06,20,8.00
2006,04,23,06,21,8.00
2006,04,23,06,22,8.00
2006,04,23,06,23,8.00
2006,04,23,06,24,8.00
2006,04,23,06,25,8.00
2006,04,23,06,26,8.00
2006,04,23,06,27,8.00
2006,04,23,06,28,7.90
2006,04,23,06,29,7.90
2006,04,23,06,30,7.90
2006,04,23,06,31,7.90
2006,04,23,06,32,7.90
2006,04,23,06,33,7.90
2006,04,23,06,34,7.80
2006,04,23,06,35,7.80
2006,04,23,06,36,7.80
2006,04,23,06,37,7.90
2006,04,23,06,38,7.90
2006,04,23,06,39,7.90
2006,04,23,06,40,7.90
2006,04,23,06,41,7.90
2006,04,23,06,42,8.00
2006,04,23,06,43,8.00
2006,04,23,06,44,8.00
2006,04,23,06,45,8.10
2006,04,23,06,46,8.10
2006,04,23,06,47,8.20
2006,04,23,06,48,8.20
2006,04,23,06,49,8.20
2006,04,23,06,50,8.20
2006,04,23,06,51,8.20
2006,04,23,06,52,8.20
2006,04,23,06,53,8.20
2006,04,23,06,54,8.20
2006,04,23,06,55,8.30
2006,04,23,06,56,8.30
2006,04,23,06,57,8.40
2006,04,23,06,58,8.50
2006,04,23,06,59,8.50
2006,04,23,07,00,8.50
2006,04,23,07,01,8.60
2006,04,23,07,02,8.60
2006,04,23,07,03,8.60
2006,04,23,07,04,8.70
2006,04,23,07,05,8.70
2006,04,23,07,06,8.70
2006,04,23,07,07,8.70
2006,04,23,07,08,8.80
2006,04,23,07,09,8.90
2006,04,23,07,10,8.90
2006,04,23,07,11,9.00
2006,04,23,07,12,9.00
2006,04,23,07,13,9.10
2006,04,23,07,14,9.20
2006,04,23,07,15,9.20
2006,04,23,07,16,9.20
2006,04,23,07,17,9.30
2006,04,23,07,18,9.40
2006,04,23,07,19,9.50
2006,04,23,07,20,9.60
2006,04,23,07,21,9.70
2006,04,23,07,22,9.70
2006,04,23,07,23,9.80
2006,04,23,07,24,9.90
2006,04,23,07,25,9.90
2006,04,23,07,26,9.90
2006,04,23,07,27,10.00
2006,04,23,07,28,10.20
2006,04,23,07,29,10.30
2006,04,23,07,30,10.40
2006,04,23,07,31,10.50
2006,04,23,07,32,10.60
2006,04,23,07,33,10.60
2006,04,23,07,34,10.80
2006,04,23,07,35,10.90
2006,04,23,07,36,10.90
2006,04,23,07,37,10.90
2006,04,23,07,38,11.00
2006,04,23,07,39,11.10
2006,04,23,07,40,11.10
2006,04,23,07,41,11.10
2006,04,23,07,42,11.10
2006,04,23,07,43,11.20
2006,04,23,07,44,11.20
2006,04,23,07,45,11.20
2006,04,23,07,46,11.30
2006,04,23,07,47,11.30
2006,04,23,07,48,11.30
2006,04,23,07,49,11.30
2006,04,23,07,50,11.40
2006,04,23,07,51,11.40
2006,04,23,07,52,11.40
2006,04,23,07,53,11.40
2006,04,23,07,54,11.40
2006,04,23,07,55,11.40
2006,04,23,07,56,11.40
2006,04,23,07,57,11.40
2006,04,23,07,58,11.40
2006,04,23,07,59,11.40
2006,04,23,08,00,11.40
2006,04,23,08,01,11.40
2006,04,23,08,02,11.40
2006,04,23,08,03,11.40
2006,04,23,08,04,11.40
2006,04,23,08,05,11.40
2006,04,23,08,06,11.40
2006,04,23,08,07,11.40
2006,04,23,08,08,11.40
2006,04,23,08,09,11.50
2006,04,23,08,10,11.60
2006,04,23,08,11,11.60
2006,04,23,08,12,11.60
2006,04,23,08,13,11.60
2006,04,23,08,14,11.60
2006,04,23,08,15,11.70
2006,04,23,08,16,11.70
2006,04,23,08,17,11.80
2006,04,23,08,18,11.80
2006,04,23,08,19,11.80
2006,04,23,08,20,11.80
2006,04,23,08,21,11.80
2006,04,23,08,22,11.80
2006,04,23,08,23,11.80
2006,04,23,08,24,11.90
2006,04,23,08,25,11.90
2006,04,23,08,26,11.90
2006,04,23,08,27,12.00
2006,04,23,08,28,12.00
2006,04,23,08,29,12.10
2006,04,23,08,30,12.10
2006,04,23,08,31,12.10
2006,04,23,08,32,12.20
2006,04,23,08,33,12.20
2006,04,23,08,34,12.20
2006,04,23,08,35,12.30
2006,04,23,08,36,12.30
2006,04,23,08,37,12.30
2006,04,23,08,38,12.30
2006,04,23,08,39,12.30
2006,04,23,08,40,12.30
2006,04,23,08,41,12.30
2006,04,23,08,42,12.30
2006,04,23,08,43,12.30
2006,04,23,08,44,12.30
2006,04,23,08,45,12.40
2006,04,23,08,46,12.50
2006,04,23,08,47,12.50
2006,04,23,08,48,12.60
2006,04,23,08,49,12.60
2006,04,23,08,50,12.60
2006,04,23,08,51,12.60
2006,04,23,08,52,12.60
2006,04,23,08,53,12.70
2006,04,23,08,54,12.80
2006,04,23,08,55,12.80
2006,04,23,08,56,12.80
2006,04,23,08,57,12.80
2006,04,23,08,58,12.80
2006,04,23,08,59,12.80
2006,04,23,09,00,12.80
2006,04,23,09,01,12.90
2006,04,23,09,02,12.90
2006,04,23,09,03,12.90
2006,04,23,09,04,13.00
2006,04,23,09,05,13.00
2006,04,23,09,06,13.00
2006,04,23,09,07,13.10
2006,04,23,09,08,13.10
2006,04,23,09,09,13.10
2006,04,23,09,10,13.20
2006,04,23,09,11,13.20
2006,04,23,09,12,13.20
2006,04,23,09,13,13.10
2006,04,23,09,14,13.20
2006,04,23,09,15,13.20
2006,04,23,09,16,13.20
2006,04,23,09,17,13.30
2006,04,23,09,18,13.30
2006,04,23,09,19,13.30
2006,04,23,09,20,13.30
2006,04,23,09,21,13.40
2006,04,23,09,22,13.40
2006,04,23,09,23,13.50
2006,04,23,09,24,13.50
2006,04,23,09,25,13.50
2006,04,23,09,26,13.50
2006,04,23,09,27,13.50
2006,04,23,09,28,13.50
2006,04,23,09,29,13.40
2006,04,23,09,30,13.30
2006,04,23,09,31,13.30
2006,04,23,09,32,13.40
2006,04,23,09,33,13.40
2006,04,23,09,34,13.40
2006,04,23,09,35,13.40
2006,04,23,09,36,13.50
2006,04,23,09,37,13.50
2006,04,23,09,38,13.60
2006,04,23,09,39,13.60
2006,04,23,09,40,13.50
2006,04,23,09,41,13.60
2006,04,23,09,42,13.60
2006,04,23,09,43,13.50
2006,04,23,09,44,13.50
2006,04,23,09,45,13.50
2006,04,23,09,46,13.50
2006,04,23,09,47,13.50
2006,04,23,09,48,13.60
2006,04,23,09,49,13.50
2006,04,23,09,50,13.50
2006,04,23,09,51,13.50
2006,04,23,09,52,13.50
2006,04,23,09,53,13.50
2006,04,23,09,54,13.50
2006,04,23,09,55,13.60
2006,04,23,09,56,13.70
2006,04,23,09,57,13.70
2006,04,23,09,58,13.70
2006,04,23,09,59,13.70
2006,04,23,10,00,13.80
2006,04,23,10,01,13.80
2006,04,23,10,02,13.80
2006,04,23,10,03,13.90
2006,04,23,10,04,13.90
2006,04,23,10,05,13.90
2006,04,23,10,06,13.90
2006,04,23,10,07,13.90
2006,04,23,10,08,14.00
2006,04,23,10,09,14.00
2006,04,23,10,10,14.00
2006,04,23,10,11,14.00
2006,04,23,10,12,13.90
2006,04,23,10,13,13.90
2006,04,23,10,14,13.90
2006,04,23,10,15,13.90
2006,04,23,10,16,13.90
2006,04,23,10,17,13.80
2006,04,23,10,18,13.80
2006,04,23,10,19,13.80
2006,04,23,10,20,13.80
2006,04,23,10,21,13.80
2006,04,23,10,22,13.80
2006,04,23,10,23,13.80
2006,04,23,10,24,13.80
2006,04,23,10,25,13.80
2006,04,23,10,26,13.90
2006,04,23,10,27,13.90
2006,04,23,10,28,13.90
2006,04,23,10,29,14.00
2006,04,23,10,30,14.00
2006,04,23,10,31,14.10
2006,04,23,10,32,14.10
2006,04,23,10,33,14.00
2006,04,23,10,34,14.00
2006,04,23,10,35,13.90
2006,04,23,10,36,13.90
2006,04,23,10,37,13.90
2006,04,23,10,38,13.90
2006,04,23,10,39,14.00
2006,04,23,10,40,14.00
2006,04,23,10,41,14.00
2006,04,23,10,42,14.10
2006,04,23,10,43,14.20
2006,04,23,10,44,14.10
2006,04,23,10,45,14.20
2006,04,23,10,46,14.20
2006,04,23,10,47,14.20
2006,04,23,10,48,14.10
2006,04,23,10,49,14.00
2006,04,23,10,50,14.00
2006,04,23,10,51,14.00
2006,04,23,10,52,14.00
2006,04,23,10,53,14.00
2006,04,23,10,54,14.10
2006,04,23,10,55,14.10
2006,04,23,10,56,14.10
2006,04,23,10,57,14.20
2006,04,23,10,58,14.10
2006,04,23,10,59,14.10
2006,04,23,11,00,14.20
2006,04,23,11,01,14.20
2006,04,23,11,02,14.20
2006,04,23,11,03,14.20
2006,04,23,11,04,14.20
2006,04,23,11,05,14.20
2006,04,23,11,06,14.20
2006,04,23,11,07,14.20
2006,04,23,11,08,14.20
2006,04,23,11,09,14.20
2006,04,23,11,10,14.20
2006,04,23,11,11,14.30
2006,04,23,11,12,14.30
2006,04,23,11,13,14.30
2006,04,23,11,14,14.30
2006,04,23,11,15,14.40
2006,04,23,11,16,14.50
2006,04,23,11,17,14.50
2006,04,23,11,18,14.50
2006,04,23,11,19,14.40
2006,04,23,11,20,14.30
2006,04,23,11,21,14.30
2006,04,23,11,22,14.30
2006,04,23,11,23,14.30
2006,04,23,11,24,14.30
2006,04,23,11,25,14.40
2006,04,23,11,26,14.40
2006,04,23,11,27,14.40
2006,04,23,11,28,14.50
2006,04,23,11,29,14.50
2006,04,23,11,30,14.50
2006,04,23,11,31,14.50
2006,04,23,11,32,14.70
2006,04,23,11,33,14.80
2006,04,23,11,34,14.90
2006,04,23,11,35,15.00
2006,04,23,11,36,15.10
2006,04,23,11,37,15.10
2006,04,23,11,38,15.00
2006,04,23,11,39,14.90
2006,04,23,11,40,14.90
2006,04,23,11,41,14.90
2006,04,23,11,42,15.00
2006,04,23,11,43,15.00
2006,04,23,11,44,14.90
2006,04,23,11,45,14.90
2006,04,23,11,46,14.80
2006,04,23,11,47,14.90
2006,04,23,11,48,14.90
2006,04,23,11,49,15.00
2006,04,23,11,50,15.00
2006,04,23,11,51,15.00
2006,04,23,11,52,15.10
2006,04,23,11,53,15.20
2006,04,23,11,54,15.30
2006,04,23,11,55,15.30
2006,04,23,11,56,15.30
2006,04,23,11,57,15.30
2006,04,23,11,58,15.30
2006,04,23,11,59,15.10
2006,04,23,12,00,15.00
2006,04,23,12,01,15.00
2006,04,23,12,02,14.90
2006,04,23,12,03,15.00
2006,04,23,12,04,15.10
2006,04,23,12,05,15.10
2006,04,23,12,06,15.10
2006,04,23,12,07,15.20
2006,04,23,12,08,15.20
2006,04,23,12,09,15.20
2006,04,23,12,10,15.20
2006,04,23,12,11,15.10
2006,04,23,12,12,15.10
2006,04,23,12,13,15.10
2006,04,23,12,14,15.20
2006,04,23,12,15,15.30
2006,04,23,12,16,15.30
2006,04,23,12,17,15.30
2006,04,23,12,18,15.30
2006,04,23,12,19,15.30
2006,04,23,12,20,15.40
2006,04,23,12,21,15.50
2006,04,23,12,22,15.50
2006,04,23,12,23,15.50
2006,04,23,12,24,15.50
2006,04,23,12,25,15.70
2006,04,23,12,26,15.80
2006,04,23,12,27,15.80
2006,04,23,12,28,15.80
2006,04,23,12,29,15.70
2006,04,23,12,30,15.60
2006,04,23,12,31,15.60
2006,04,23,12,32,15.70
2006,04,23,12,33,15.80
2006,04,23,12,34,15.80
2006,04,23,12,35,15.90
2006,04,23,12,36,15.90
2006,04,23,12,37,16.00
2006,04,23,12,38,16.10
2006,04,23,12,39,16.10
2006,04,23,12,40,16.20
2006,04,23,12,41,16.20
2006,04,23,12,42,16.30
2006,04,23,12,43,16.40
2006,04,23,12,44,16.50
2006,04,23,12,45,16.50
2006,04,23,12,46,16.40
2006,04,23,12,47,16.20
2006,04,23,12,48,16.20
2006,04,23,12,49,16.20
2006,04,23,12,50,16.20
2006,04,23,12,51,16.20
2006,04,23,12,52,16.30
2006,04,23,12,53,16.30
2006,04,23,12,54,16.30
2006,04,23,12,55,16.30
2006,04,23,12,56,16.40
2006,04,23,12,57,16.30
2006,04,23,12,58,16.30
2006,04,23,12,59,16.40
2006,04,23,13,00,16.40
2006,04,23,13,01,16.40
2006,04,23,13,02,16.40
2006,04,23,13,03,16.60
2006,04,23,13,04,16.70
2006,04,23,13,05,16.70
2006,04,23,13,06,16.80
2006,04,23,13,07,16.80
2006,04,23,13,08,16.80
2006,04,23,13,09,16.90
2006,04,23,13,10,16.90
2006,04,23,13,11,17.00
2006,04,23,13,12,17.00
2006,04,23,13,13,17.10
2006,04,23,13,14,17.20
2006,04,23,13,15,17.20
2006,04,23,13,16,17.20
2006,04,23,13,17,17.10
2006,04,23,13,18,17.00
2006,04,23,13,19,17.00
2006,04,23,13,20,17.00
2006,04,23,13,21,17.00
2006,04,23,13,22,17.00
2006,04,23,13,23,16.90
2006,04,23,13,24,16.80
2006,04,23,13,25,16.90
2006,04,23,13,26,16.90
2006,04,23,13,27,16.90
2006,04,23,13,28,17.00
2006,04,23,13,29,17.10
2006,04,23,13,30,17.10
2006,04,23,13,31,17.30
2006,04,23,13,32,17.30
2006,04,23,13,33,17.30
2006,04,23,13,34,17.30
2006,04,23,13,35,17.10
2006,04,23,13,36,17.10
2006,04,23,13,37,17.10
2006,04,23,13,38,17.20
2006,04,23,13,39,17.30
2006,04,23,13,40,17.20
2006,04,23,13,41,17.10
2006,04,23,13,42,17.10
2006,04,23,13,43,17.20
2006,04,23,13,44,17.30
2006,04,23,13,45,17.40
2006,04,23,13,46,17.40
2006,04,23,13,47,17.30
2006,04,23,13,48,17.30
2006,04,23,13,49,17.30
2006,04,23,13,50,17.30
2006,04,23,13,51,17.30
2006,04,23,13,52,17.30
2006,04,23,13,53,17.30
2006,04,23,13,54,17.30
2006,04,23,13,55,17.30
2006,04,23,13,56,17.20
2006,04,23,13,57,17.20
2006,04,23,13,58,17.20
2006,04,23,13,59,17.30
2006,04,23,14,00,17.40
2006,04,23,14,01,17.50
2006,04,23,14,02,17.60
2006,04,23,14,03,17.60
2006,04,23,14,04,17.70
2006,04,23,14,05,17.80
2006,04,23,14,06,17.70
2006,04,23,14,07,17.70
2006,04,23,14,08,17.70
2006,04,23,14,09,17.70
2006,04,23,14,10,17.70
2006,04,23,14,11,17.70
2006,04,23,14,12,17.80
2006,04,23,14,13,17.90
2006,04,23,14,14,18.10
2006,04,23,14,15,18.20
2006,04,23,14,16,18.30
2006,04,23,14,17,18.40
2006,04,23,14,18,18.30
2006,04,23,14,19,18.30
2006,04,23,14,20,18.20
2006,04,23,14,21,18.20
2006,04,23,14,22,18.20
2006,04,23,14,23,18.20
2006,04,23,14,24,18.30
2006,04,23,14,25,18.20
2006,04,23,14,26,18.10
2006,04,23,14,27,18.10
2006,04,23,14,28,18.10
2006,04,23,14,29,18.10
2006,04,23,14,30,18.20
2006,04,23,14,31,18.20
2006,04,23,14,32,18.20
2006,04,23,14,33,18.30
2006,04,23,14,34,18.40
2006,04,23,14,35,18.40
2006,04,23,14,36,18.40
2006,04,23,14,37,18.40
2006,04,23,14,38,18.30
2006,04,23,14,39,18.20
2006,04,23,14,40,18.20
2006,04,23,14,41,18.30
2006,04,23,14,42,18.30
2006,04,23,14,43,18.20
2006,04,23,14,44,18.30
2006,04,23,14,45,18.20
2006,04,23,14,46,18.30
2006,04,23,14,47,18.30
2006,04,23,14,48,18.30
2006,04,23,14,49,18.30
2006,04,23,14,50,18.40
2006,04,23,14,51,18.50
2006,04,23,14,52,18.50
2006,04,23,14,53,18.50
2006,04,23,14,54,18.50
2006,04,23,14,55,18.30
2006,04,23,14,56,18.20
2006,04,23,14,57,18.20
2006,04,23,14,58,18.20
2006,04,23,14,59,18.20
2006,04,23,15,00,18.20
2006,04,23,15,01,18.20
2006,04,23,15,02,18.20
2006,04,23,15,03,18.20
2006,04,23,15,04,18.20
2006,04,23,15,05,18.30
2006,04,23,15,06,18.40
2006,04,23,15,07,18.40
2006,04,23,15,08,18.40
2006,04,23,15,09,18.50
2006,04,23,15,10,18.60
2006,04,23,15,11,18.70
2006,04,23,15,12,18.80
2006,04,23,15,13,18.90
2006,04,23,15,14,19.00
2006,04,23,15,15,19.10
2006,04,23,15,16,19.10
2006,04,23,15,17,19.10
2006,04,23,15,18,19.10
2006,04,23,15,19,19.10
2006,04,23,15,20,19.10
2006,04,23,15,21,19.10
2006,04,23,15,22,19.10
2006,04,23,15,23,19.10
2006,04,23,15,24,19.10
2006,04,23,15,25,19.10
2006,04,23,15,26,19.00
2006,04,23,15,27,18.90
2006,04,23,15,28,19.00
2006,04,23,15,29,19.10
2006,04,23,15,30,19.10
2006,04,23,15,31,19.30
2006,04,23,15,32,19.40
2006,04,23,15,33,19.50
2006,04,23,15,34,19.50
2006,04,23,15,35,19.50
2006,04,23,15,36,19.40
2006,04,23,15,37,19.50
2006,04,23,15,38,19.60
2006,04,23,15,39,19.50
2006,04,23,15,40,19.50
2006,04,23,15,41,19.40
2006,04,23,15,42,19.40
2006,04,23,15,43,19.40
2006,04,23,15,44,19.40
2006,04,23,15,45,19.50
2006,04,23,15,46,19.50
2006,04,23,15,47,19.50
2006,04,23,15,48,19.60
2006,04,23,15,49,19.60
2006,04,23,15,50,19.60
2006,04,23,15,51,19.60
2006,04,23,15,52,19.70
2006,04,23,15,53,19.60
2006,04,23,15,54,19.60
2006,04,23,15,55,19.70
2006,04,23,15,56,19.70
2006,04,23,15,57,19.70
2006,04,23,15,58,19.70
2006,04,23,15,59,19.70
2006,04,23,16,00,19.70
2006,04,23,16,01,19.70
2006,04,23,16,02,19.80
2006,04,23,16,03,19.80
2006,04,23,16,04,19.90
2006,04,23,16,05,20.10
2006,04,23,16,06,20.20
2006,04,23,16,07,20.20
2006,04,23,16,08,20.20
2006,04,23,16,09,20.10
2006,04,23,16,10,20.10
2006,04,23,16,11,20.10
2006,04,23,16,12,20.20
2006,04,23,16,13,20.20
2006,04,23,16,14,20.20
2006,04,23,16,15,20.20
2006,04,23,16,16,20.20
2006,04,23,16,17,20.20
2006,04,23,16,18,20.20
2006,04,23,16,19,20.20
2006,04,23,16,20,20.30
2006,04,23,16,21,20.30
2006,04,23,16,22,20.30
2006,04,23,16,23,20.20
2006,04,23,16,24,20.10
2006,04,23,16,25,20.10
2006,04,23,16,26,20.10
2006,04,23,16,27,20.00
2006,04,23,16,28,19.90
2006,04,23,16,29,19.90
2006,04,23,16,30,20.00
2006,04,23,16,31,20.10
2006,04,23,16,32,20.10
2006,04,23,16,33,20.10
2006,04,23,16,34,20.10
2006,04,23,16,35,20.10
2006,04,23,16,36,20.10
2006,04,23,16,37,20.20
2006,04,23,16,38,20.20
2006,04,23,16,39,20.20
2006,04,23,16,40,20.10
2006,04,23,16,41,20.10
2006,04,23,16,42,20.10
2006,04,23,16,43,20.10
2006,04,23,16,44,20.10
2006,04,23,16,45,20.20
2006,04,23,16,46,20.20
2006,04,23,16,47,20.20
2006,04,23,16,48,20.20
2006,04,23,16,49,20.20
2006,04,23,16,50,20.20
2006,04,23,16,51,20.20
2006,04,23,16,52,20.20
2006,04,23,16,53,20.20
2006,04,23,16,54,20.20
2006,04,23,16,55,20.20
2006,04,23,16,56,20.20
2006,04,23,16,57,20.30
2006,04,23,16,58,20.30
2006,04,23,16,59,20.40
2006,04,23,17,00,20.40
2006,04,23,17,01,20.30
2006,04,23,17,02,20.20
2006,04,23,17,03,20.20
2006,04,23,17,04,20.10
2006,04,23,17,05,20.10
2006,04,23,17,06,20.10
2006,04,23,17,07,20.10
2006,04,23,17,08,20.10
2006,04,23,17,09,20.10
2006,04,23,17,10,20.20
2006,04,23,17,11,20.20
2006,04,23,17,12,20.20
2006,04,23,17,13,20.20
2006,04,23,17,14,20.20
2006,04,23,17,15,20.20
2006,04,23,17,16,20.20
2006,04,23,17,17,20.20
2006,04,23,17,18,20.20
2006,04,23,17,19,20.20
2006,04,23,17,20,20.20
2006,04,23,17,21,20.20
2006,04,23,17,22,20.30
2006,04,23,17,23,20.30
2006,04,23,17,24,20.30
2006,04,23,17,25,20.30
2006,04,23,17,26,20.40
2006,04,23,17,27,20.40
2006,04,23,17,28,20.50
2006,04,23,17,29,20.60
2006,04,23,17,30,20.60
2006,04,23,17,31,20.70
2006,04,23,17,32,20.70
2006,04,23,17,33,20.70
2006,04,23,17,34,20.70
2006,04,23,17,35,20.80
2006,04,23,17,36,20.80
2006,04,23,17,37,20.80
2006,04,23,17,38,20.80